This is the latest recevied weather packets stored in our database for station/object DG8SF-13. If no packets are shown the sender has not sent any weather packets the latest 10 day(s).
| Time | Temp. | Humidity | Pressure | Rain* | Wind** | Luminosity | Snow |
|---|---|---|---|---|---|---|---|
| 1787927280 | 19.44° C | 94% | 1013.2 hPa | 1.52 mm | - | - | - |
| 1787926922 | 18.33° C | 93% | 1013.5 hPa | 1.52 mm | - | - | - |
| 1787926612 | 18.89° C | 93% | 1013.4 hPa | 1.27 mm | - | - | - |
| 1787926298 | 18.33° C | 92% | 1013.5 hPa | 1.27 mm | - | - | - |
| 1787925986 | 18.33° C | 92% | 1013.9 hPa | 1.27 mm | - | - | - |
| 1787925674 | 18.89° C | 91% | 1014.4 hPa | 1.27 mm | - | - | - |
| 1787925351 | 19.44° C | 91% | 1014.3 hPa | 0.51 mm | - | - | - |
| 1787925027 | 19.44° C | 90% | 1014.7 hPa | 0.51 mm | - | - | - |
| 1787924716 | 19.44° C | 91% | 1014.4 hPa | 0 mm | - | - | - |
| 1787924402 | 20° C | 91% | 1014.3 hPa | 0 mm | - | - | - |
| 1787924090 | 20° C | 91% | 1014.3 hPa | 0 mm | - | - | - |
| 1787923779 | 20° C | 90% | 1014.3 hPa | 0 mm | - | - | - |
| 1787923468 | 20° C | 90% | 1014.3 hPa | 0 mm | - | - | - |
| 1787923153 | 20° C | 90% | 1014.4 hPa | 0.76 mm | - | - | - |
| 1787922845 | 20° C | 89% | 1014.1 hPa | 1.52 mm | - | - | - |
| 1787922529 | 20.56° C | 88% | 1014.1 hPa | 1.52 mm | - | - | - |
| 1787922222 | 21.11° C | 89% | 1013.9 hPa | 2.29 mm | - | - | - |
| 1787921907 | 20.56° C | 89% | 1013.7 hPa | 3.56 mm | - | - | - |
| 1787921594 | 20.56° C | 89% | 1013.5 hPa | 3.56 mm | - | - | - |
| 1787921282 | 20° C | 88% | 1013.1 hPa | 3.56 mm | - | - | - |
| 1787920971 | 19.44° C | 89% | 1013.2 hPa | 3.56 mm | - | - | - |
| 1787920645 | 19.44° C | 92% | 1013.9 hPa | 3.56 mm | - | - | - |
| 1787920313 | 19.44° C | 92% | 1014.1 hPa | 3.56 mm | - | - | - |
| 1787919999 | 19.44° C | 92% | 1014.5 hPa | 3.56 mm | - | - | - |
| 1787919663 | 19.44° C | 92% | 1015.2 hPa | 3.56 mm | - | - | - |
* Rain latest hour (hover to see other rain measurements)
** Current wind speed in m/s (hover to see current wind gust speed)